TimeEST,TemperatureF,Dew PointF,Humidity,Sea Level PressureIn,VisibilityMPH,Wind Direction,Wind SpeedMPH,Gust SpeedMPH,PrecipitationIn,Events,Conditions,WindDirDegrees,DateUTC
12:15 AM,33.8,30.2,87,29.88,10.0,West,15.0,-,N/A,,Overcast,270,2013-02-06 05:15:00
12:35 AM,33.8,30.2,87,29.87,10.0,West,19.6,26.5,N/A,,Overcast,280,2013-02-06 05:35:00
12:55 AM,33.8,30.2,87,29.87,10.0,West,17.3,23.0,N/A,,Overcast,280,2013-02-06 05:55:00
1:15 AM,33.8,30.2,87,29.87,10.0,West,21.9,28.8,N/A,,Overcast,280,2013-02-06 06:15:00
1:35 AM,33.8,30.2,87,29.88,10.0,West,17.3,27.6,N/A,,Overcast,280,2013-02-06 06:35:00
1:55 AM,33.8,30.2,87,29.88,10.0,West,20.7,27.6,N/A,,Overcast,280,2013-02-06 06:55:00
2:15 AM,33.8,28.4,81,29.88,10.0,West,18.4,28.8,N/A,,Overcast,280,2013-02-06 07:15:00
2:35 AM,33.8,28.4,81,29.89,10.0,West,20.7,28.8,N/A,,Overcast,280,2013-02-06 07:35:00
2:55 AM,32.0,28.4,87,29.89,10.0,West,23.0,32.2,N/A,,Overcast,280,2013-02-06 07:55:00
3:15 AM,32.0,28.4,87,29.89,10.0,WNW,23.0,32.2,N/A,,Overcast,290,2013-02-06 08:15:00
3:35 AM,32.0,28.4,87,29.90,10.0,WNW,17.3,33.4,N/A,,Overcast,290,2013-02-06 08:35:00
3:55 AM,30.2,28.4,93,29.90,10.0,West,23.0,34.5,N/A,,Overcast,280,2013-02-06 08:55:00
4:15 AM,30.2,26.6,86,29.90,10.0,WNW,24.2,40.3,N/A,,Overcast,290,2013-02-06 09:15:00
4:35 AM,30.2,26.6,86,29.91,10.0,West,29.9,39.1,N/A,,Overcast,280,2013-02-06 09:35:00
4:55 AM,30.2,26.6,86,29.92,10.0,West,25.3,34.5,N/A,,Overcast,280,2013-02-06 09:55:00
5:15 AM,30.2,26.6,86,29.93,10.0,West,25.3,35.7,N/A,,Overcast,280,2013-02-06 10:15:00
5:35 AM,28.4,26.6,93,29.94,10.0,West,19.6,35.7,N/A,,Overcast,280,2013-02-06 10:35:00
5:55 AM,28.4,26.6,93,29.95,10.0,West,17.3,27.6,N/A,,Overcast,280,2013-02-06 10:55:00
6:15 AM,26.6,24.8,93,29.97,10.0,West,18.4,24.2,N/A,,Overcast,280,2013-02-06 11:15:00
6:35 AM,26.6,24.8,93,29.98,10.0,West,17.3,26.5,N/A,,Overcast,280,2013-02-06 11:35:00
6:55 AM,26.6,24.8,93,29.99,10.0,WNW,15.0,25.3,N/A,,Overcast,290,2013-02-06 11:55:00
7:15 AM,26.6,24.8,93,30.01,10.0,West,16.1,23.0,N/A,,Overcast,280,2013-02-06 12:15:00
7:35 AM,26.6,24.8,93,30.02,10.0,West,16.1,21.9,N/A,,Overcast,270,2013-02-06 12:35:00
7:55 AM,26.6,26.6,100,30.03,10.0,West,16.1,20.7,N/A,,Overcast,280,2013-02-06 12:55:00
8:15 AM,26.6,26.6,100,30.04,10.0,WNW,16.1,23.0,N/A,,Overcast,290,2013-02-06 13:15:00
8:35 AM,26.6,26.6,100,30.05,10.0,West,19.6,27.6,N/A,,Overcast,280,2013-02-06 13:35:00
8:55 AM,26.6,24.8,93,30.05,10.0,West,16.1,23.0,N/A,,Overcast,280,2013-02-06 13:55:00
9:15 AM,26.6,24.8,93,30.06,10.0,WNW,15.0,23.0,N/A,,Overcast,290,2013-02-06 14:15:00
9:55 AM,26.6,24.8,93,30.08,10.0,WNW,8.1,16.1,N/A,,Overcast,290,2013-02-06 14:55:00
10:15 AM,26.6,24.8,93,30.09,10.0,WNW,9.2,-,N/A,,Overcast,300,2013-02-06 15:15:00
10:35 AM,28.4,24.8,86,30.10,10.0,West,9.2,-,N/A,,Overcast,280,2013-02-06 15:35:00
10:55 AM,28.4,24.8,86,30.11,10.0,West,5.8,-,N/A,,Overcast,280,2013-02-06 15:55:00
11:15 AM,28.4,24.8,86,30.12,10.0,West,5.8,-,N/A,,Overcast,270,2013-02-06 16:15:00
11:35 AM,28.4,24.8,86,30.13,10.0,West,9.2,-,N/A,,Overcast,280,2013-02-06 16:35:00
11:55 AM,28.4,23.0,80,30.13,10.0,West,11.5,-,N/A,,Overcast,270,2013-02-06 16:55:00
12:15 PM,30.2,24.8,80,30.13,10.0,West,10.4,-,N/A,,Mostly Cloudy,270,2013-02-06 17:15:00
12:35 PM,30.2,24.8,80,30.13,10.0,West,11.5,-,N/A,,Mostly Cloudy,270,2013-02-06 17:35:00
12:55 PM,30.2,23.0,75,30.12,10.0,West,10.4,16.1,N/A,,Mostly Cloudy,260,2013-02-06 17:55:00
1:15 PM,32.0,24.8,75,30.12,10.0,West,8.1,-,N/A,,Scattered Clouds,280,2013-02-06 18:15:00
1:35 PM,33.8,23.0,65,30.12,10.0,WNW,10.4,-,N/A,,Clear,290,2013-02-06 18:35:00
1:55 PM,33.8,23.0,65,30.12,10.0,WNW,8.1,-,N/A,,Clear,290,2013-02-06 18:55:00
2:15 PM,33.8,24.8,70,30.13,10.0,West,9.2,-,N/A,,Clear,270,2013-02-06 19:15:00
2:35 PM,33.8,24.8,70,30.14,10.0,WNW,5.8,-,N/A,,Clear,290,2013-02-06 19:35:00
2:55 PM,35.6,23.0,60,30.14,10.0,West,12.7,-,N/A,,Clear,270,2013-02-06 19:55:00
3:15 PM,35.6,23.0,60,30.14,10.0,West,10.4,16.1,N/A,,Clear,280,2013-02-06 20:15:00
3:35 PM,35.6,23.0,60,30.14,10.0,WNW,8.1,-,N/A,,Clear,300,2013-02-06 20:35:00
3:55 PM,35.6,23.0,60,30.14,10.0,West,10.4,16.1,N/A,,Clear,270,2013-02-06 20:55:00
4:35 PM,35.6,21.2,56,30.14,10.0,West,9.2,-,N/A,,Clear,280,2013-02-06 21:35:00
4:55 PM,35.6,21.2,56,30.15,10.0,West,10.4,-,N/A,,Clear,280,2013-02-06 21:55:00
5:15 PM,33.8,21.2,60,30.16,10.0,West,10.4,-,N/A,,Clear,280,2013-02-06 22:15:00
5:35 PM,33.8,21.2,60,30.16,10.0,West,9.2,-,N/A,,Clear,270,2013-02-06 22:35:00
5:55 PM,32.0,21.2,64,30.17,10.0,West,8.1,-,N/A,,Clear,280,2013-02-06 22:55:00
6:15 PM,30.2,21.2,69,30.18,10.0,West,8.1,-,N/A,,Clear,270,2013-02-06 23:15:00
6:35 PM,30.2,21.2,69,30.18,10.0,WNW,5.8,-,N/A,,Clear,290,2013-02-06 23:35:00
6:55 PM,30.2,21.2,69,30.20,10.0,West,6.9,-,N/A,,Clear,280,2013-02-06 23:55:00
7:15 PM,30.2,21.2,69,30.20,10.0,West,6.9,-,N/A,,Clear,280,2013-02-07 00:15:00
7:35 PM,30.2,21.2,69,30.20,10.0,West,5.8,-,N/A,,Clear,280,2013-02-07 00:35:00
7:55 PM,30.2,21.2,69,30.20,10.0,WNW,4.6,-,N/A,,Clear,300,2013-02-07 00:55:00
8:15 PM,28.4,21.2,74,30.21,10.0,West,5.8,-,N/A,,Clear,270,2013-02-07 01:15:00
8:35 PM,30.2,21.2,69,30.21,10.0,West,6.9,-,N/A,,Clear,280,2013-02-07 01:35:00
8:55 PM,30.2,21.2,69,30.21,10.0,West,5.8,-,N/A,,Clear,270,2013-02-07 01:55:00
9:15 PM,30.2,21.2,69,30.21,10.0,SW,3.5,-,N/A,,Clear,220,2013-02-07 02:15:00
9:55 PM,30.2,21.2,69,30.20,10.0,Calm,Calm,-,N/A,,Clear,0,2013-02-07 02:55:00
10:15 PM,32.0,21.2,64,30.19,10.0,SSW,3.5,-,N/A,,Clear,200,2013-02-07 03:15:00
10:35 PM,32.0,21.2,64,30.19,10.0,South,4.6,-,N/A,,Clear,190,2013-02-07 03:35:00
10:55 PM,32.0,21.2,64,30.20,10.0,South,4.6,-,N/A,,Clear,190,2013-02-07 03:55:00
11:35 PM,32.0,23.0,69,30.21,10.0,SW,3.5,-,N/A,,Clear,230,2013-02-07 04:35:00
11:55 PM,32.0,23.0,69,30.24,10.0,SSW,6.9,-,N/A,,Clear,200,2013-02-07 04:55:00